Theta_e
300 299 298 298 298 298 298 298 298 297 295 294 293 293 292 292 292 292 292 291 291 292
301 299 298 298 297 297 298 297 297 297 295 294 293 293 292 291 291 291 292 291 291 290
301 300 299 298 297 297 297 296 296 295 295 294 293 293 291 291 291 290 290 290 290 290
301 301 300 299 298 297 297 296 295 295 295 294 293 293 291 291 290 289 290 290 290 289
299 299 299 298 298 298 297 297 295 295 294 294 293 293 292 291 291 289 289 289 289 289
295 296 296 296 297 297 297 296 296 294 293 293 293 293 292 291 291 290 290 290 289 289
294 294 295 295 295 296 296 295 295 295 293 293 292 292 292 291 290 290 290 290 290 289
293 294 294 294 294 294 294 294 294 294 294 293 292 292 292 291 290 290 289 289 289 289
293 293 292 292 292 292 292 292 292 292 292 293 293 294 296 296 293 290 289 289 289 288
291 291 291 291 291 290 290 290 291 291 291 292 293 294 296 297 297 294 292 290 289 288
289 289 289 289 289 289 289 289 289 290 290 290 291 294 295 296 296 295 294 293 292 289
288 288 288 287 287 288 288 288 288 289 289 289 289 292 293 294 294 293 292 292 293 291
287 287 286 286 286 287 287 286 287 287 288 289 289 291 292 293 292 291 291 292 291 293
286 285 286 286 286 286 285 286 286 286 287 287 288 289 292 293 291 290 290 290 290 290
Wind_Speed
5 4 5 6 4 4 4 5 4 5 6 7 7 7 6 5 5 5 5 7 6 4
5 6 6 6 5 5 6 6 8 8 8 8 8 8 7 6 7 6 7 7 7 6
5 5 6 5 7 7 8 7 8 8 8 8 8 8 8 7 8 8 7 6 8 9
4 4 4 5 6 7 7 7 8 9 9 9 10 10 9 11 10 11 11 10 10 12
4 4 4 4 5 5 7 7 8 8 9 10 11 10 11 12 11 12 13 13 11 13
3 3 4 4 5 5 6 7 7 7 9 10 10 10 11 12 13 13 14 14 14 14
4 4 5 5 5 5 6 7 7 7 8 9 9 9 10 11 12 13 13 14 14 14
4 4 4 5 6 6 6 7 7 8 8 8 8 7 9 10 12 12 13 13 13 14
4 5 5 6 6 6 6 6 6 7 8 9 7 12 16 14 10 12 13 13 13 13
5 5 5 6 6 7 7 7 8 9 8 10 12 15 17 18 11 11 12 13 12 11
4 5 6 6 6 7 6 8 9 10 10 10 11 18 19 20 12 11 13 14 14 14
5 6 6 7 8 7 6 9 8 8 11 12 12 19 20 18 11 12 13 13 14 14
5 5 7 7 7 5 6 8 7 9 10 13 12 17 20 18 9 11 11 12 12 21
5 5 6 6 5 5 8 8 9 9 9 10 12 12 19 20 11 9 10 10 9 10
Wind_Direction
236 237 244 248 253 257 256 258 258 244 239 240 238 235 230 236 240 235 239 240 231 236
242 240 251 260 252 254 252 251 249 242 245 243 243 241 234 238 240 232 236 237 237 236
261 251 254 256 255 253 261 255 258 257 249 253 248 244 235 243 244 242 240 236 234 234
268 267 269 271 279 275 281 270 265 267 267 259 254 244 235 238 238 236 243 234 232 240
352 343 311 292 295 293 279 278 267 265 261 259 255 251 242 248 242 236 241 241 231 239
17 359 344 325 316 311 305 297 291 276 269 271 266 261 251 247 250 243 241 240 231 235
8 352 344 335 327 317 315 302 298 286 279 275 275 265 262 251 251 251 247 245 240 237
354 347 342 343 338 331 321 312 306 302 295 287 279 272 265 255 254 254 255 250 244 240
351 347 344 333 325 317 311 305 300 297 298 300 285 279 277 272 258 252 250 254 250 242
342 331 328 323 319 316 316 314 309 306 300 298 297 295 288 283 267 257 253 252 255 253
334 326 322 317 314 315 314 316 313 309 305 295 294 298 297 291 278 265 256 253 251 247
338 322 318 321 321 316 309 318 312 305 302 301 296 299 299 298 281 269 264 258 252 246
310 306 307 303 308 301 302 293 296 291 287 285 287 292 297 302 289 279 275 273 262 255
296 293 285 297 296 302 301 297 296 293 288 278 281 291 298 300 297 287 285 279 274 264